Location: Proctor
(47.8934°N, 114.3048°W)
Time: 00:40:05
(UTC+00:00)

POLYITAN 1 - Pass Details

Date: 07 July 2022
Orbit: 586 x 605 km, 98.0° (Epoch: 15 August)

Event Time Altitude Azimuth Distance (km) Brightness Sun altitude
Rises 10:20:01 0° 5° (N) 2,866 ? -11.2°
Reaches altitude 10° 10:22:22 10° 355° (N) 1,960 ? -10.9°
Maximum altitude 10:26:07 31° 293° (WNW) 1,060 ? -10.5°
Enters shadow 10:29:21 13° 235° (SW) 1,760 ? -10.2°
